Location: ??????
(41.3164°N, 22.6615°E)
Time: 17:28:14
(UTC+00:00)

CAS-4A - Pass Details

Date: 07 July 2022
Orbit: 521 x 537 km, 43.0° (Epoch: 11 August)

Event Time Altitude Azimuth Distance (km) Brightness Sun altitude
Rises 02:23:16 0° 285° (WNW) 2,645 ? -7.0°
Reaches altitude 10° 02:25:31 10° 282° (WNW) 1,757 ? -6.6°
Maximum altitude 02:29:28 59° 202° (SSW) 606 ? -6.1°
Drops below altitude 10° 02:33:26 10° 123° (ESE) 1,760 ? -5.5°
Sets 02:35:41 0° 119° (ESE) 2,650 ? -5.1°
